Regional Weather Roundup
Issued by NWS

Home | Current Version | Previous Version | Text Only | Print | Product List | Glossary On
Versions: 1 2 3 4 5 6 7 8 9 10 11 12 13 14 15 16 17 18 19 20 21 22 23 24 25 26 27 28
000
ASUS45 KSLC 170810
RWRUT

UTAH REGIONAL WEATHER ROUNDUP
NATIONAL WEATHER SERVICE SALT LAKE CITY UT
200 AM MDT THU AUG 17 2017

UTZ001>011-023>025-170900-

NORTHERN UTAH

CITY           SKY/WX    TMP DP  RH WIND       PRES   REMARKS
BRIGHAM CITY   PTCLDY    63  47  57 CALM      30.07S
HILL AFB       MOCLDY    67  36  31 E12       30.10R
LOGAN          PTCLDY    64  46  52 CALM      30.08S
OGDEN          PTCLDY    67  38  34 S8        30.07R
SALT LAKE CITY PTCLDY    72  39  30 S9        30.05S
TOOELE VALLEY  PTCLDY    64  37  36 S10       30.07S
WENDOVER       PTCLDY    71  42  35 NE7       30.05S
HEBER CITY     PTCLDY    52  41  66 CALM      30.19R
WEST JORDAN    PTCLDY    67  47  48 CALM      30.09F

$$

UTZ011>015-024>027-170900-

CENTRAL/NORTHEAST UTAH

CITY           SKY/WX    TMP DP  RH WIND       PRES   REMARKS
PROVO AIRPORT  NOT AVBL
MOAB/CANYONLAN CLEAR     70  32  24 CALM      30.06S
DELTA          PTCLDY    64  43  45 NE3       30.10S
PRICE          PTCLDY    61  40  45 N7        30.18S
ROOSEVELT      CLEAR     54  46  76 SW5       30.17F
VERNAL         CLEAR     57  45  64 W5        30.15S

$$

UTZ013>016-019>022-027-170900-

SOUTHERN UTAH

CITY           SKY/WX    TMP DP  RH WIND       PRES   REMARKS
BRYCE CANYON   CLEAR     47  38  71 W9        30.32S
CEDAR CITY     CLEAR     65  38  36 SE6       30.16F
MILFORD        CLEAR     60  37  42 SW7       30.12S
ST GEORGE      MOSUNNY   76  41  28 CALM      29.98S
HANKSVILLE     CLEAR     66  32  28 CALM      30.09S
BLANDING       CLEAR     60  31  32 N6        30.23S

$$

REGIONAL REPORTS     COLORADO/ARIZONA

CITY           SKY/WX    TMP DP  RH WIND       PRES   REMARKS
CRAIG, CO      CLOUDY    48  40  73 CALM      30.22S
GRAND JUNCTION CLEAR     65  39  38 E6        30.11S
RIFLE, CO      CLEAR     59  38  45 SE6       30.18R
MONTROSE, CO   CLEAR     59  38  45 SE10      30.19S
CORTEZ, CO     CLEAR     49  34  56 NE5       30.20S
COLORADO CITY    N/A     55  45  67 CALM      30.15S
PAGE, AZ       NOT AVBL
GRAND CANYON   PTCLDY    48  37  65 CALM      30.28R
KINGMAN, AZ    CLEAR     70  37  29 CALM      30.03S
FLAGSTAFF, AZ  CLEAR     48  40  73 CALM      30.30S

$$

REGIONAL REPORTS    NEVADA/IDAHO/WYOMING

CITY           SKY/WX    TMP DP  RH WIND       PRES   REMARKS
LAS VEGAS, NV  CLEAR     85  39  19 SW5       29.92R
ELY, NY        CLEAR     47  42  83 S10       30.24R
ELKO, NV       PTCLDY    65  39  38 N5        30.13R
POCATELLO, ID  CLOUDY    68  37  32 S9        30.06F
BURLEY, ID     CLEAR     59  42  53 SW9       30.05S
FORT BRIDGER,    N/A     60  35  39 SW9       30.28S
EVANSTON, WY   CLOUDY    55  38  52 S7        30.26S
ROCK SPRINGS,  CLEAR     59  37  44 SW9       30.21F
KEMMERER, WY     N/A     54  36  50 NW7       30.26F

$$




USA.gov is the U.S. government's official web portal to all federal, state and local government web resources and services.